GW2134 Weather Reports


time (UTC)temp
F
wind
direction
speed
knots
gust
knots
rain 1hr
in
rain 24hr
in
rain mn
in
humidity
%
barometer
mb
20260502190053 57 355 4.3 7.8 0.00 0.00 0.00 52 1024.3
20260502184556 58 343 3.5 7.0 0.00 0.00 0.00 52 1024.2
20260502183104 59 338 3.5 5.2 0.00 0.00 0.00 51 1024.2
20260502181553 61 58 1.7 4.3 0.00 0.00 0.00 48 1024.1
20260502163056 68 211 0.9 3.5 0.00 0.00 0.00 31 1024.3
20260502161549 68 118 0.9 5.2 0.00 0.00 0.00 37 1024.4
20260502151604 70 280 0.9 7.0 0.00 0.00 0.00 35 1024.7
20260502123053 69 211 4.3 8.7 0.00 0.00 0.00 35 1026.4
20260502121555 68 55 2.6 8.7 0.00 0.00 0.00 36 1026.5
20260502114607 68 169 3.5 7.0 0.00 0.00 0.00 36 1026.9
20260502113052 68 102 1.7 7.8 0.00 0.00 0.00 36 1027.1
20260502111556 67 117 4.3 10.4 0.00 0.00 0.00 37 1027.3
20260502110055 67 126 1.7 5.2 0.00 0.00 0.00 36 1027.6
20260502104720 67 80 2.6 7.0 0.00 0.00 0.00 36 1027.7
20260502104554 67 80 2.6 7.0 0.00 0.00 0.00 36 1027.7
20260502103055 65 311 0.9 6.1 0.00 0.00 0.00 37 1027.9
20260502101623 66 117 2.6 8.7 0.00 0.00 0.00 37 1028.2
20260502090108 63 190 1.7 5.2 0.00 0.00 0.00 39 1028.6
20260502080107 59 165 2.6 7.0 0.00 0.00 0.00 43 1028.6
20260502070059 58 108 0.0 2.6 0.00 0.00 0.00 46 1028.8
20260502064555 57 0 0.9 3.5 0.00 0.00 0.00 52 1028.8
20260502063057 56 355 0.0 1.7 0.00 0.00 0.00 47 1028.8
20260502061550 54 0 0.0 0.9 0.00 0.00 0.00 56 1028.8
20260502060051 52 0 0.0 0.9 0.00 0.00 0.00 54 1028.9
20260502054558 51 0 0.0 1.7 0.00 0.00 0.00 55 1028.9
20260502053052 51 0 0.0 0.0 0.00 0.00 0.00 55 1028.8
20260502051604 50 0 0.0 2.6 0.00 0.00 0.00 56 1028.7
20260502050054 49 0 0.0 2.6 0.00 0.00 0.00 55 1028.7
20260502044552 48 0 0.0 1.7 0.00 0.00 0.00 54 1028.7
20260502043103 48 19 0.9 3.5 0.00 0.00 0.00 53 1028.6
20260502041600 48 0 0.0 2.6 0.00 0.00 0.00 53 1028.6
20260502040059 48 0 0.0 4.3 0.00 0.00 0.00 52 1028.7
20260502034553 49 327 0.0 3.5 0.00 0.00 0.00 51 1028.7
20260502033059 49 330 1.7 6.1 0.00 0.00 0.00 50 1028.6
20260502031555 49 0 0.0 4.3 0.00 0.00 0.00 48 1028.7
20260502030105 49 343 1.7 4.3 0.00 0.00 0.00 49 1028.8
20260502024741 48 360 1.7 2.6 0.00 0.00 0.00 49 1028.8
20260502024553 48 360 1.7 2.6 0.00 0.00 0.00 49 1028.8
20260502023120 47 360 1.7 2.6 0.00 0.00 0.00 50 1028.8
20260502021557 47 20 0.9 2.6 0.00 0.00 0.00 50 1028.8
20260502020106 47 0 0.0 0.9 0.00 0.00 0.00 50 1028.9
20260502014554 47 286 0.0 1.7 0.00 0.00 0.00 50 1028.9
20260502013104 47 0 0.0 1.7 0.00 0.00 0.00 50 1028.9
20260502011554 48 0 0.0 3.5 0.00 0.00 0.00 49 1029.0
20260502010052 48 0 0.9 2.6 0.00 0.00 0.00 49 1029.0
20260502004618 48 321 0.0 3.5 0.00 0.00 0.00 49 1029.1
20260502003057 48 350 1.7 4.3 0.00 0.00 0.00 48 1029.1
20260502001605 48 338 2.6 4.3 0.00 0.00 0.00 48 1029.2
20260501234606 48 0 0.0 0.9 0.00 0.00 0.00 49 1029.4
20260501233058 48 360 0.0 2.6 0.00 0.00 0.00 49 1029.4
20260501231553 48 9 0.0 3.5 0.00 0.00 0.00 50 1029.3
20260501230051 49 0 0.0 4.3 0.00 0.00 0.00 51 1029.2
20260501224556 49 355 0.9 3.5 0.00 0.00 0.00 51 1029.2
20260501223053 49 334 0.9 2.6 0.00 0.00 0.00 51 1029.2
20260501221554 49 71 0.0 1.7 0.00 0.00 0.00 50 1029.2
20260501220134 50 0 0.0 2.6 0.00 0.00 0.00 49 1029.0
20260501214553 50 0 0.0 3.5 0.00 0.00 0.00 49 1028.8
20260501213101 50 302 1.7 4.3 0.00 0.00 0.00 49 1028.9
20260501211554 50 0 1.7 7.0 0.00 0.00 0.00 48 1028.9
20260501210110 49 11 0.0 4.3 0.00 0.00 0.00 48 1028.8
20260501204559 49 23 1.7 5.2 0.00 0.00 0.00 51 1028.8
20260501203056 49 24 3.5 7.8 0.00 0.00 0.00 50 1028.7
20260501201556 49 360 3.5 7.0 0.00 0.00 0.00 49 1028.7
20260501200055 49 299 3.5 7.0 0.00 0.00 0.00 49 1028.6
20260501194553 49 284 3.5 6.1 0.00 0.00 0.00 48 1028.5
20260501193055 50 297 2.6 7.0 0.00 0.00 0.00 47 1028.4
20260501191602 50 306 4.3 7.0 0.00 0.00 0.00 48 1028.2